FW8707 Weather Reports


Display with metric or nautical units.
time (UTC)temp
F
wind
direction
speed
MPH
gust
MPH
rain 1hr
in
rain 24hr
in
rain mn
in
humidity
%
barometer
mb
20260905201517 96 69 2.0 8.0 0.00 0.00 0.00 19 1017.8
20260905201011 96 63 1.0 9.0 0.00 0.00 0.00 19 1017.8
20260905200516 96 26 3.0 9.0 0.00 0.00 0.00 20 1017.8
20260905200022 96 259 2.0 9.0 0.00 0.00 0.00 19 1017.8
20260905195513 96 78 2.0 9.0 0.00 0.00 0.00 20 1017.9
20260905195012 96 67 4.0 8.0 0.00 0.00 0.00 20 1018.0
20260905194519 97 71 4.0 7.0 0.00 0.00 0.00 20 1018.0
20260905194011 96 235 1.0 7.0 0.00 0.00 0.00 20 1018.0
20260905193510 97 55 2.0 7.0 0.00 0.00 0.00 19 1018.1
20260905193017 97 70 1.0 6.0 0.00 0.00 0.00 20 1018.1
20260905192512 97 40 2.0 6.0 0.00 0.00 0.00 20 1018.2
20260905192011 97 83 1.0 7.0 0.00 0.00 0.00 20 1018.2
20260905191518 96 75 0.0 7.0 0.00 0.00 0.00 21 1018.2
20260905191016 96 64 1.0 7.0 0.00 0.00 0.00 21 1018.2
20260905190509 96 8 0.0 5.0 0.00 0.00 0.00 20 1018.2
20260905190019 95 59 0.0 6.0 0.00 0.00 0.00 21 1018.2
20260905185512 95 231 1.0 7.0 0.00 0.00 0.00 22 1018.2
20260905185010 95 73 0.0 7.0 0.00 0.00 0.00 21 1018.4
20260905184528 95 68 2.0 7.0 0.00 0.00 0.00 21 1018.4
20260905184013 95 70 3.0 6.0 0.00 0.00 0.00 22 1018.4
20260905183512 94 339 1.0 5.0 0.00 0.00 0.00 21 1018.5
20260905183017 94 47 0.0 5.0 0.00 0.00 0.00 21 1018.5
20260905182512 94 64 2.0 4.0 0.00 0.00 0.00 23 1018.6
20260905182011 93 56 0.0 5.0 0.00 0.00 0.00 23 1018.6
20260905181519 93 248 1.0 5.0 0.00 0.00 0.00 23 1018.7
20260905181012 93 14 0.0 3.0 0.00 0.00 0.00 22 1018.8
20260905180513 93 223 0.0 2.0 0.00 0.00 0.00 24 1018.8
20260905180019 93 316 0.0 5.0 0.00 0.00 0.00 24 1018.9
20260905175512 92 49 2.0 5.0 0.00 0.00 0.00 25 1019.0
20260905175015 92 31 1.0 4.0 0.00 0.00 0.00 25 1019.0
20260905174524 91 54 2.0 4.0 0.00 0.00 0.00 26 1019.1
20260905174013 90 71 0.0 5.0 0.00 0.00 0.00 26 1019.0
20260905173514 91 255 1.0 5.0 0.00 0.00 0.00 24 1019.0
20260905173021 92 65 1.0 5.0 0.00 0.00 0.00 24 1019.0
20260905172513 92 78 1.0 5.0 0.00 0.00 0.00 24 1019.0
20260905172015 92 325 0.0 4.0 0.00 0.00 0.00 24 1019.1
20260905171521 92 57 1.0 4.0 0.00 0.00 0.00 26 1019.2
20260905171010 91 71 1.0 6.0 0.00 0.00 0.00 26 1019.2
20260905170512 90 30 1.0 6.0 0.00 0.00 0.00 25 1019.2
20260905170025 90 58 2.0 6.0 0.00 0.00 0.00 26 1019.1
20260905165513 89 71 0.0 3.0 0.00 0.00 0.00 28 1019.0
20260905165015 89 112 0.0 4.0 0.00 0.00 0.00 30 1018.9
20260905164526 88 87 1.0 5.0 0.00 0.00 0.00 28 1019.0
20260905164012 88 70 1.0 5.0 0.00 0.00 0.00 28 1018.9
20260905163513 88 57 1.0 4.0 0.00 0.00 0.00 29 1018.9
20260905163026 88 70 1.0 3.0 0.00 0.00 0.00 29 1018.9
20260905162514 87 44 1.0 3.0 0.00 0.00 0.00 30 1018.9
20260905162014 87 82 0.0 5.0 0.00 0.00 0.00 31 1018.9
20260905161524 86 77 0.0 5.0 0.00 0.00 0.00 32 1019.0
20260905161006 85 52 0.0 5.0 0.00 0.00 0.00 33 1019.1
20260905160504 85 68 0.0 5.0 0.00 0.00 0.00 34 1019.1
20260905160007 84 75 1.0 4.0 0.00 0.00 0.00 33 1019.1
20260905155506 83 75 0.0 3.0 0.00 0.00 0.00 35 1019.0
20260905155006 83 356 1.0 5.0 0.00 0.00 0.00 34 1018.9
20260905154511 82 56 2.0 6.0 0.00 0.00 0.00 34 1018.9
20260905154009 81 65 1.0 6.0 0.00 0.00 0.00 35 1018.8
20260905153509 80 73 2.0 9.0 0.00 0.00 0.00 37 1018.8
20260905153019 80 49 4.0 9.0 0.00 0.00 0.00 37 1018.8
20260905152508 79 68 2.0 6.0 0.00 0.00 0.00 40 1018.8
20260905152011 79 78 2.0 5.0 0.00 0.00 0.00 41 1018.7
20260905151519 78 62 2.0 5.0 0.00 0.00 0.00 41 1018.7
20260905151007 78 77 2.0 5.0 0.00 0.00 0.00 42 1018.6
20260905150514 78 56 1.0 4.0 0.00 0.00 0.00 42 1018.6
20260905150012 78 67 1.0 4.0 0.00 0.00 0.00 43 1018.5
20260905145504 77 73 1.0 4.0 0.00 0.00 0.00 42 1018.5
20260905145005 77 85 2.0 4.0 0.00 0.00 0.00 42 1018.5
20260905144521 77 72 0.0 2.0 0.00 0.00 0.00 45 1018.6
20260905144006 76 298 0.0 1.0 0.00 0.00 0.00 44 1018.6
20260905143508 76 275 0.0 1.0 0.00 0.00 0.00 41 1018.7
20260905143013 75 275 0.0 1.0 0.00 0.00 0.00 42 1018.6
20260905142510 74 275 0.0 1.0 0.00 0.00 0.00 42 1018.5
20260905142010 74 275 0.0 0.0 0.00 0.00 0.00 43 1018.5
20260905141513 73 275 0.0 0.0 0.00 0.00 0.00 43 1018.5
20260905141007 72 275 0.0 2.0 0.00 0.00 0.00 43 1018.5
20260905140511 71 275 0.0 3.0 0.00 0.00 0.00 46 1018.4
20260905140017 69 275 0.0 3.0 0.00 0.00 0.00 48 1018.3
20260905135510 69 275 0.0 3.0 0.00 0.00 0.00 50 1018.4
20260905135011 68 279 0.0 2.0 0.00 0.00 0.00 50 1018.4
20260905134517 67 279 0.0 3.0 0.00 0.00 0.00 50 1018.4
20260905134006 66 279 1.0 5.0 0.00 0.00 0.00 53 1018.3
20260905133504 65 279 2.0 5.0 0.00 0.00 0.00 53 1018.3
20260905133010 65 275 1.0 4.0 0.00 0.00 0.00 54 1018.2
20260905132505 64 287 0.0 1.0 0.00 0.00 0.00 58 1018.2
20260905132009 63 287 0.0 1.0 0.00 0.00 0.00 58 1018.2
20260905131520 63 287 0.0 3.0 0.00 0.00 0.00 60 1018.2
20260905131012 63 270 0.0 3.0 0.00 0.00 0.00 55 1018.2
20260905130515 62 270 0.0 3.0 0.00 0.00 0.00 57 1018.2
20260905130017 62 287 0.0 3.0 0.00 0.00 0.00 57 1018.0
20260905125509 62 279 1.0 3.0 0.00 0.00 0.00 56 1018.0
20260905125009 62 275 0.0 1.0 0.00 0.00 0.00 57 1018.0
20260905124516 62 279 0.0 3.0 0.00 0.00 0.00 56 1018.0
20260905124011 62 279 0.0 3.0 0.00 0.00 0.00 55 1017.9
20260905123512 62 279 2.0 3.0 0.00 0.00 0.00 55 1017.9
20260905123020 62 285 0.0 1.0 0.00 0.00 0.00 55 1017.8
20260905122507 62 283 0.0 1.0 0.00 0.00 0.00 55 1017.7
20260905122004 63 283 0.0 0.0 0.00 0.00 0.00 54 1017.7
20260905121510 63 283 0.0 2.0 0.00 0.00 0.00 53 1017.7
20260905121007 63 283 0.0 2.0 0.00 0.00 0.00 53 1017.7
20260905120513 64 285 0.0 2.0 0.00 0.00 0.00 52 1017.7
20260905120018 64 285 0.0 2.0 0.00 0.00 0.00 52 1017.7
20260905115509 64 275 0.0 3.0 0.00 0.00 0.00 52 1017.6
20260905115018 64 275 0.0 4.0 0.00 0.00 0.00 51 1017.6
20260905114518 64 279 0.0 4.0 0.00 0.00 0.00 51 1017.6
20260905114011 64 270 1.0 4.0 0.00 0.00 0.00 51 1017.7
20260905113510 64 287 0.0 3.0 0.00 0.00 0.00 51 1017.7
20260905113018 65 287 0.0 4.0 0.00 0.00 0.00 51 1017.7
20260905112513 65 275 0.0 4.0 0.00 0.00 0.00 51 1017.7
20260905112014 65 275 1.0 3.0 0.00 0.00 0.00 51 1017.7
20260905111507 65 275 0.0 3.0 0.00 0.00 0.00 51 1017.7
20260905111009 65 279 1.0 3.0 0.00 0.00 0.00 51 1017.7
20260905110510 65 270 1.0 4.0 0.00 0.00 0.00 51 1017.7
20260905110009 65 275 1.0 4.0 0.00 0.00 0.00 51 1017.7
20260905105508 64 279 1.0 3.0 0.00 0.00 0.00 51 1017.7
20260905105010 64 275 1.0 3.0 0.00 0.00 0.00 51 1017.8
20260905104518 64 275 1.0 3.0 0.00 0.00 0.00 52 1017.8
20260905104022 64 279 2.0 3.0 0.00 0.00 0.00 52 1017.8
20260905103518 64 275 0.0 4.0 0.00 0.00 0.00 53 1017.7
20260905103024 64 275 2.0 4.0 0.00 0.00 0.00 53 1017.7
20260905102511 64 279 1.0 3.0 0.00 0.00 0.00 53 1017.6
20260905102015 64 280 0.0 2.0 0.00 0.00 0.00 54 1017.7
20260905101530 64 282 0.0 0.0 0.00 0.00 0.00 53 1017.7
20260905101014 64 282 0.0 0.0 0.00 0.00 0.00 53 1017.7
20260905100514 64 282 0.0 2.0 0.00 0.00 0.00 54 1017.6
20260905100012 65 282 0.0 2.0 0.00 0.00 0.00 54 1017.5
20260905095507 65 282 0.0 2.0 0.00 0.00 0.00 53 1017.5
20260905095009 66 282 0.0 1.0 0.00 0.00 0.00 53 1017.4
20260905094519 66 282 0.0 4.0 0.00 0.00 0.00 53 1017.3
20260905094011 67 282 0.0 5.0 0.00 0.00 0.00 52 1017.1
20260905093513 67 270 2.0 5.0 0.00 0.00 0.00 47 1016.8
20260905093025 66 275 2.0 5.0 0.00 0.00 0.00 47 1016.8
20260905092517 66 279 2.0 5.0 0.00 0.00 0.00 47 1016.9
20260905092014 66 279 2.0 5.0 0.00 0.00 0.00 47 1016.9
20260905091526 67 279 0.0 2.0 0.00 0.00 0.00 49 1016.8
20260905091014 67 270 0.0 0.0 0.00 0.00 0.00 47 1016.9
20260905090516 67 270 0.0 0.0 0.00 0.00 0.00 47 1017.0
20260905090024 68 270 0.0 0.0 0.00 0.00 0.00 46 1016.8
20260905085517 68 270 0.0 2.0 0.00 0.00 0.00 46 1016.8
20260905085016 68 270 0.0 4.0 0.00 0.00 0.00 45 1016.8
20260905084512 68 275 2.0 4.0 0.00 0.00 0.00 45 1016.7
20260905084011 68 275 0.0 4.0 0.00 0.00 0.00 45 1016.7
20260905083512 68 287 0.0 4.0 0.00 0.00 0.00 45 1016.7
20260905083017 68 287 1.0 4.0 0.00 0.00 0.00 45 1016.6
20260905082511 68 270 1.0 3.0 0.00 0.00 0.00 45 1016.7
20260905082014 68 279 1.0 3.0 0.00 0.00 0.00 45 1016.7
20260905081525 68 279 0.0 2.0 0.00 0.00 0.00 45 1016.7
20260905081015 68 279 0.0 2.0 0.00 0.00 0.00 45 1016.8
20260905080514 68 279 1.0 2.0 0.00 0.00 0.00 45 1016.8
20260905080026 68 279 0.0 2.0 0.00 0.00 0.00 45 1016.8
20260905075514 68 275 0.0 2.0 0.00 0.00 0.00 45 1016.8
20260905075013 68 275 0.0 4.0 0.00 0.00 0.00 44 1016.8
20260905074529 68 275 0.0 4.0 0.00 0.00 0.00 44 1016.8
20260905074016 69 275 0.0 3.0 0.00 0.00 0.00 44 1016.8
20260905073507 69 281 0.0 1.0 0.00 0.00 0.00 44 1016.8
20260905073012 70 281 0.0 1.0 0.00 0.00 0.00 42 1016.8
20260905072512 70 270 0.0 1.0 0.00 0.00 0.00 42 1016.7
20260905072014 70 270 0.0 1.0 0.00 0.00 0.00 42 1016.7
20260905071524 70 279 0.0 5.0 0.00 0.00 0.00 42 1016.7
20260905071013 71 279 0.0 5.0 0.00 0.00 0.00 40 1016.6
20260905070514 71 275 2.0 4.0 0.00 0.00 0.00 40 1016.6
20260905070027 71 279 1.0 4.0 0.00 0.00 0.00 40 1016.5
20260905065513 71 279 2.0 4.0 0.00 0.00 0.00 40 1016.6
20260905065014 71 279 1.0 3.0 0.00 0.00 0.00 39 1016.7
20260905064527 71 279 1.0 4.0 0.00 0.00 0.00 39 1016.7
20260905064020 71 275 1.0 4.0 0.00 0.00 0.00 40 1016.7
20260905063515 72 275 2.0 4.0 0.00 0.00 0.00 40 1016.7
20260905063030 72 279 2.0 4.0 0.00 0.00 0.00 39 1016.7
20260905062516 72 270 1.0 4.0 0.00 0.00 0.00 38 1016.7
20260905062009 73 270 1.0 5.0 0.00 0.00 0.00 38 1016.7
20260905061516 73 270 2.0 5.0 0.00 0.00 0.00 38 1016.7
20260905061014 73 279 1.0 5.0 0.00 0.00 0.00 38 1016.7
20260905060512 73 275 2.0 7.0 0.00 0.00 0.00 37 1016.5
20260905060039 73 275 2.0 7.0 0.00 0.00 0.00 37 1016.4
20260905055515 74 287 1.0 5.0 0.00 0.00 0.00 37 1016.5
20260905055014 74 270 1.0 4.0 0.00 0.00 0.00 37 1016.5
20260905054557 74 275 1.0 6.0 0.00 0.00 0.00 36 1016.6
20260905054017 74 275 2.0 7.0 0.00 0.00 0.00 36 1016.7
20260905053516 74 275 3.0 7.0 0.00 0.00 0.00 36 1016.7
20260905053032 74 279 2.0 8.0 0.00 0.00 0.00 36 1016.7
20260905052518 74 279 3.0 11.0 0.00 0.00 0.00 36 1016.8
20260905052014 74 279 3.0 11.0 0.00 0.00 0.00 36 1016.8
20260905051527 75 279 3.0 10.0 0.00 0.00 0.00 36 1016.8
20260905051015 76 279 3.0 7.0 0.00 0.00 0.00 35 1017.0
20260905050514 76 287 3.0 7.0 0.00 0.00 0.00 35 1017.1
20260905050020 77 285 1.0 5.0 0.00 0.00 0.00 34 1017.0
20260905045518 77 279 2.0 5.0 0.00 0.00 0.00 34 1017.0
20260905045015 77 279 2.0 5.0 0.00 0.00 0.00 34 1017.0
20260905044526 77 270 2.0 4.0 0.00 0.00 0.00 34 1017.1
20260905044015 78 279 1.0 7.0 0.00 0.00 0.00 33 1017.2
20260905043514 78 275 3.0 7.0 0.00 0.00 0.00 33 1017.3
20260905043032 78 279 3.0 7.0 0.00 0.00 0.00 33 1017.3
20260905042516 78 279 1.0 4.0 0.00 0.00 0.00 34 1017.3
20260905042018 78 279 0.0 2.0 0.00 0.00 0.00 33 1017.4
20260905041532 78 279 0.0 2.0 0.00 0.00 0.00 33 1017.5
20260905041009 79 279 0.0 3.0 0.00 0.00 0.00 34 1017.5
20260905040514 79 287 0.0 3.0 0.00 0.00 0.00 33 1017.5
20260905040017 79 275 0.0 2.0 0.00 0.00 0.00 34 1017.5
20260905035511 79 279 0.0 3.0 0.00 0.00 0.00 33 1017.5
20260905035017 79 279 0.0 4.0 0.00 0.00 0.00 33 1017.4
20260905034524 79 279 0.0 4.0 0.00 0.00 0.00 33 1017.4
20260905034004 79 286 0.0 4.0 0.00 0.00 0.00 34 1017.5
20260905033504 79 270 0.0 4.0 0.00 0.00 0.00 34 1017.5
20260905033008 79 275 0.0 4.0 0.00 0.00 0.00 34 1017.5
20260905032505 79 279 0.0 5.0 0.00 0.00 0.00 34 1017.3
20260905032005 80 279 1.0 5.0 0.00 0.00 0.00 33 1017.2
20260905031508 80 275 0.0 3.0 0.00 0.00 0.00 34 1017.2
20260905031008 80 285 0.0 1.0 0.00 0.00 0.00 34 1017.2
20260905030506 80 286 0.0 1.0 0.00 0.00 0.00 34 1017.1
20260905030014 80 285 0.0 1.0 0.00 0.00 0.00 34 1017.0
20260905025510 80 292 0.0 1.0 0.00 0.00 0.00 33 1017.1
20260905025011 80 288 0.0 1.0 0.00 0.00 0.00 33 1017.0
20260905024517 80 285 0.0 4.0 0.00 0.00 0.00 32 1016.8
20260905024013 80 282 0.0 4.0 0.00 0.00 0.00 32 1016.8
20260905023516 80 283 0.0 2.0 0.00 0.00 0.00 33 1016.7
20260905023026 80 287 0.0 2.0 0.00 0.00 0.00 32 1016.5
20260905022504 80 279 0.0 2.0 0.00 0.00 0.00 33 1016.5
20260905022006 81 279 0.0 2.0 0.00 0.00 0.00 32 1016.5
20260905021506 81 293 0.0 0.0 0.00 0.00 0.00 32 1016.5
20260905021004 81 283 0.0 0.0 0.00 0.00 0.00 31 1016.3
20260905020506 82 81 0.0 0.0 0.00 0.00 0.00 32 1016.3
20260905020012 82 81 0.0 0.0 0.00 0.00 0.00 31 1016.2
20260905015513 82 81 0.0 0.0 0.00 0.00 0.00 31 1016.1
20260905015008 82 81 0.0 1.0 0.00 0.00 0.00 30 1016.1
20260905014518 83 81 0.0 1.0 0.00 0.00 0.00 30 1016.0
20260905014013 83 81 0.0 1.0 0.00 0.00 0.00 30 1016.1
20260905013514 83 81 0.0 3.0 0.00 0.00 0.00 29 1016.0
20260905013027 83 65 0.0 3.0 0.00 0.00 0.00 29 1016.0
20260905012512 84 60 0.0 4.0 0.00 0.00 0.00 29 1016.0
20260905012017 84 64 0.0 4.0 0.00 0.00 0.00 29 1015.9
20260905011506 84 75 0.0 3.0 0.00 0.00 0.00 28 1016.0
20260905011005 85 64 0.0 5.0 0.00 0.00 0.00 28 1015.9
20260905010504 85 281 1.0 5.0 0.00 0.00 0.00 27 1015.9
20260905010015 86 54 0.0 4.0 0.00 0.00 0.00 27 1015.8
20260905005506 86 237 0.0 8.0 0.00 0.00 0.00 26 1015.8
20260905005010 87 35 1.0 8.0 0.00 0.00 0.00 25 1015.8
20260905004513 87 135 1.0 7.0 0.00 0.00 0.00 25 1015.7
20260905004011 88 1 0.0 4.0 0.00 0.00 0.00 23 1015.6
20260905003511 88 80 0.0 6.0 0.00 0.00 0.00 24 1015.6
20260905003021 88 308 1.0 7.0 0.00 0.00 0.00 23 1015.5
20260905002514 89 52 2.0 7.0 0.00 0.00 0.00 22 1015.4
20260905002013 89 105 1.0 6.0 0.00 0.00 0.00 22 1015.4
20260905001524 89 88 3.0 6.0 0.00 0.00 0.00 22 1015.4
20260905001020 90 59 2.0 8.0 0.00 0.00 0.00 21 1015.4
20260905000517 90 96 0.0 8.0 0.00 0.00 0.00 22 1015.5
20260905000006 90 123 2.0 8.0 0.00 0.00 0.00 21 1015.4
20260904235506 90 55 2.0 9.0 0.00 0.00 0.00 21 1015.4
20260904235005 90 85 4.0 9.0 0.00 0.00 0.00 21 1015.4
20260904234510 90 285 1.0 8.0 0.00 0.00 0.00 22 1015.4
20260904234007 90 67 3.0 9.0 0.00 0.00 0.00 21 1015.3
20260904233507 90 64 3.0 9.0 0.00 0.00 0.00 22 1015.3
20260904233019 91 52 3.0 9.0 0.00 0.00 0.00 21 1015.3
20260904232510 91 61 0.0 7.0 0.00 0.00 0.00 21 1015.3
20260904232013 91 198 1.0 7.0 0.00 0.00 0.00 19 1015.4
20260904231523 91 90 2.0 8.0 0.00 0.00 0.00 20 1015.3
20260904231012 91 64 3.0 8.0 0.00 0.00 0.00 20 1015.3
20260904230514 92 92 3.0 7.0 0.00 0.00 0.00 19 1015.3
20260904230032 92 279 3.0 7.0 0.00 0.00 0.00 19 1015.3
20260904225513 92 54 3.0 7.0 0.00 0.00 0.00 20 1015.3
20260904225019 92 225 1.0 8.0 0.00 0.00 0.00 19 1015.5
20260904224510 92 229 2.0 8.0 0.00 0.00 0.00 18 1015.4
20260904224008 93 138 1.0 9.0 0.00 0.00 0.00 19 1015.5
20260904223507 93 202 1.0 9.0 0.00 0.00 0.00 18 1015.5
20260904223012 93 201 1.0 9.0 0.00 0.00 0.00 19 1015.6
20260904222510 93 70 2.0 8.0 0.00 0.00 0.00 19 1015.5
20260904222009 93 171 2.0 8.0 0.00 0.00 0.00 19 1015.6
20260904221519 93 294 1.0 8.0 0.00 0.00 0.00 18 1015.5
20260904221014 93 46 1.0 8.0 0.00 0.00 0.00 18 1015.6
20260904220512 93 55 3.0 10.0 0.00 0.00 0.00 18 1015.6
20260904220027 94 91 4.0 10.0 0.00 0.00 0.00 19 1015.6
20260904215514 94 67 4.0 8.0 0.00 0.00 0.00 18 1015.6
20260904215016 95 158 2.0 7.0 0.00 0.00 0.00 19 1015.7
20260904214529 95 74 3.0 7.0 0.00 0.00 0.00 18 1015.7
20260904214016 95 260 2.0 7.0 0.00 0.00 0.00 19 1015.8
20260904213508 95 44 2.0 6.0 0.00 0.00 0.00 18 1015.8
20260904213010 95 225 3.0 7.0 0.00 0.00 0.00 19 1015.8
20260904212508 95 217 2.0 8.0 0.00 0.00 0.00 17 1015.9
20260904212008 95 64 3.0 9.0 0.00 0.00 0.00 18 1015.9
20260904211516 95 227 4.0 9.0 0.00 0.00 0.00 18 1015.8
20260904211010 95 275 1.0 9.0 0.00 0.00 0.00 19 1015.9
20260904210513 95 234 1.0 9.0 0.00 0.00 0.00 18 1016.0
20260904210030 94 214 2.0 10.0 0.00 0.00 0.00 19 1016.0
20260904205517 94 46 6.0 10.0 0.00 0.00 0.00 20 1016.0
20260904205015 95 94 3.0 11.0 0.00 0.00 0.00 19 1016.1
20260904204531 95 121 2.0 11.0 0.00 0.00 0.00 19 1016.2
20260904204021 95 44 1.0 10.0 0.00 0.00 0.00 20 1016.2
20260904203516 95 120 1.0 9.0 0.00 0.00 0.00 19 1016.2
20260904203047 95 196 4.0 9.0 0.00 0.00 0.00 18 1016.1
20260904202519 95 63 2.0 7.0 0.00 0.00 0.00 20 1016.2
20260904202010 95 175 2.0 10.0 0.00 0.00 0.00 19 1016.3